Tri-Cities, TN

11:40 AM EST on February 24, 2018 (GMT -0500)
Tri-Cities Regional Tennessee / Virginia

Weather History for KTRI - March, 2013

Change the Weather History Date:

Tuesday, March 5, 2013

  Actual Average Record
Temperature  
Mean Temperature 41 °F 44 °F  
Max Temperature 49 °F 56 °F 77 °F (1955)
Min Temperature 33 °F 32 °F 5 °F (1960)
Degree Days  
Heating Degree Days 24 21  
Month to date heating degree days 152 109  
Since 1 July heating degree days 3321 3491  
Cooling Degree Days 0 0  
Month to date cooling degree days 0 0  
Year to date cooling degree days 0 0  
Moisture  
Dew Point 38 °F    
Average Humidity 82    
Maximum Humidity 100    
Minimum Humidity 64    
Precipitation  
Precipitation 1.23 in 0.11 in 2.13 in (1963)
Month to date precipitation 1.29 0.55  
Year to date precipitation 13.14 7.37  
Snow  
Snow T in 0.00 in - ()
Month to date snowfall 0.2 0.3  
Since 1 July snowfall 7.9 11.1  
Snow Depth 0.00 in    
Sea Level Pressure  
Sea Level Pressure 29.79 in    
Wind  
Wind Speed 6 mph (ESE)    
Max Wind Speed 31 mph    
Max Gust Speed 42 mph    
Visibility 6 miles    
Events Rain , Snow    
T = Trace of Precipitation, MM = Missing Value Source: NWS Daily Summary

Daily Weather History Graph

Daily Weather History Graph

Search for Another Location

Airport or City:

Trip Planner

Search our weather history database for the weather conditions in past years. The results will help you decide how hot, cold, wet, or windy it might be!

Date:

Astronomy

Mar. 05, 2013 Rise Set
Actual Time 6:54 AM EST 6:28 PM EST
Civil Twilight 6:28 AM EST 6:54 PM EST
Nautical Twilight 5:58 AM EST 7:23 PM EST
Astronomical Twilight 5:28 AM EST 7:53 PM EST
Moon 1:58 AM EST (3/5) 12:13 PM EST (3/5)
Length of Visible Light 12h 25m
Length of Day
11h 33m
Last Quarter, 41% of the Moon is Illuminated
Mar 5
Last Quarter
Mar 11
New
Mar 19
First Quarter
Mar 27
Full
Apr 3
Last Quarter

Hourly Weather History & Observations

Time (EST) Temp. Windchill Dew Point Humidity Pressure Visibility Wind Dir Wind Speed Gust Speed Precip Events Conditions
12:53 AM 37.9 °F - 28.0 °F 68% 30.01 in 10.0 mi Calm Calm - N/A   Scattered Clouds
1:53 AM 37.0 °F - 26.1 °F 65% 30.01 in 10.0 mi Calm Calm - N/A   Mostly Cloudy
2:53 AM 36.0 °F - 27.0 °F 70% 29.99 in 10.0 mi Calm Calm - N/A   Mostly Cloudy
3:53 AM 35.1 °F - 27.0 °F 72% 29.98 in 10.0 mi Calm Calm - N/A   Mostly Cloudy
4:53 AM 37.0 °F 34.5 °F 26.1 °F 65% 29.96 in 10.0 mi ENE 3.5 mph - N/A   Scattered Clouds
5:53 AM 37.9 °F - 28.0 °F 68% 29.96 in 10.0 mi Calm Calm - 0.00 in   Overcast
6:53 AM 37.9 °F - 28.0 °F 68% 29.95 in 10.0 mi Calm Calm - 0.00 in Rain Light Rain
7:53 AM 37.0 °F 34.5 °F 32.0 °F 82% 29.96 in 6.0 mi SW 3.5 mph - 0.06 in Rain Rain
8:53 AM 36.0 °F - 34.0 °F 93% 29.97 in 4.0 mi Calm Calm - 0.16 in Rain Rain
9:53 AM 37.0 °F 33.3 °F 34.0 °F 89% 29.94 in 4.0 mi East 4.6 mph - 0.07 in Rain Light Rain
10:53 AM 37.9 °F 33.5 °F 36.0 °F 93% 29.90 in 5.0 mi ENE 5.8 mph - 0.06 in Rain Light Rain
11:53 AM 39.9 °F 37.8 °F 37.9 °F 93% 29.86 in 3.0 mi NNE 3.5 mph - 0.01 in Rain Rain
12:43 PM 43.0 °F 41.3 °F 41.0 °F 93% 29.83 in 7.0 mi Variable 3.5 mph - 0.06 in   Overcast
12:53 PM 44.1 °F 42.5 °F 41.0 °F 89% 29.80 in 7.0 mi ENE 3.5 mph - 0.06 in Rain Light Rain
1:34 PM 44.1 °F 40.8 °F 42.1 °F 93% 29.81 in 2.0 mi NNW 5.8 mph - 0.06 in Rain Heavy Rain
1:46 PM 44.1 °F 42.5 °F 42.1 °F 93% 29.81 in 2.0 mi NNE 3.5 mph - 0.13 in Rain Heavy Rain
1:53 PM 43.0 °F - 42.1 °F 97% 29.79 in 2.0 mi Calm Calm - 0.17 in Rain Heavy Rain
2:53 PM 44.1 °F 41.5 °F 43.0 °F 96% 29.73 in 2.0 mi East 4.6 mph - 0.22 in Rain Rain
2:59 PM 44.1 °F 41.5 °F 43.0 °F 96% 29.74 in 2.0 mi East 4.6 mph - 0.01 in Rain Rain
3:49 PM 46.4 °F 43.5 °F 44.6 °F 93% 29.67 in 3.0 mi ENE 5.8 mph - 0.07 in Rain Light Rain
3:53 PM 46.0 °F 43.1 °F 45.0 °F 96% 29.66 in 3.0 mi East 5.8 mph - 0.07 in Rain Light Rain
4:53 PM 46.0 °F 43.9 °F 45.0 °F 96% 29.59 in 5.0 mi NE 4.6 mph - 0.00 in Rain Light Rain
5:18 PM 46.9 °F - 45.0 °F 93% 29.63 in 1.8 mi Calm Calm - 0.04 in Rain Heavy Rain
5:35 PM 46.9 °F - 45.0 °F 93% 29.64 in 2.0 mi Variable 6.9 mph - 0.14 in Rain Rain
5:53 PM 46.9 °F - 45.0 °F 93% 29.63 in 2.5 mi South 6.9 mph - 0.17 in Rain Light Rain
6:47 PM 48.2 °F - 46.4 °F 93% 29.63 in 3.0 mi South 8.1 mph 20.7 mph 0.12 in Rain Light Rain
6:48 PM 48.0 °F - 46.0 °F 93% 29.60 in 3.0 mi South 8.1 mph 20.7 mph 0.12 in Rain Light Rain
7:48 PM 46.4 °F 42.9 °F 44.6 °F 93% 29.61 in 6.0 mi SSW 6.9 mph - 0.01 in Rain Light Rain
7:53 PM 46.9 °F - 45.0 °F 93% 29.59 in 8.0 mi SSW 4.6 mph - 0.01 in Rain Light Rain
8:53 PM 46.0 °F 37.4 °F 41.0 °F 83% 29.64 in 10.0 mi WSW 25.3 mph 34.5 mph 0.01 in Rain Light Rain
9:35 PM 41.0 °F 30.2 °F 37.9 °F 89% 29.70 in 7.0 mi West 27.6 mph 34.5 mph 0.01 in Rain Light Rain
9:53 PM 39.0 °F 29.0 °F 37.9 °F 96% 29.70 in 7.0 mi West 20.7 mph 31.1 mph 0.04 in Rain Light Rain
10:19 PM 37.0 °F 25.9 °F 33.1 °F 86% 29.74 in 10.0 mi West 23.0 mph 34.5 mph 0.00 in Rain Light Rain
10:53 PM 36.0 °F 26.3 °F 30.0 °F 79% 29.74 in 10.0 mi West 16.1 mph 33.4 mph 0.00 in   Overcast
11:53 PM 33.1 °F 23.0 °F 28.9 °F 85% 29.75 in 5.0 mi WSW 15.0 mph - 0.00 in Snow Light Snow